Location: Bower School (historical)
(37.8389°N, 89.5348°W)
Time: 03:57:13
(UTC+00:00)

Cosmos-2242 - Pass Details

Date: 11 December 2025
Orbit: 566 x 591 km, 82.5° (Epoch: 21 January)

Event Time Altitude Azimuth Distance (km) Brightness Sun altitude
Rises 23:13:03 0° 147° (SSE) 2,808 6.3 -6.8°
Reaches altitude 10° 23:15:53 10° 127° (SE) 1,917 5.3 -7.3°
Maximum altitude 23:18:36 17° 87° (E) 1,527 4.5 -7.8°
Drops below altitude 10° 23:21:20 10° 47° (NE) 1,930 5.0 -8.3°
Enters shadow 23:21:54 - 41° (NE) 2,086 5.2 -8.4°
